Location: Unspecified
(0.0000°N, 0.0000°E)
Time: 23:20:54
(UTC+02:00)

Atlas Centaur 2 - Visible Passes

Search period start: 24 October 2014 00:00
Search period end: 02 November 2014 23:00
Orbit: 460 x 1327 km, 30.4° (Epoch: 24 October)

Date Brightness Start Highest point End Pass type
(mag) Time Alt. Az. Time Alt. Az. Time Alt. Az.
24 Oct 2.9 05:49:21 39° NNE 05:49:21 39° NNE 05:53:49 10° NE visible
25 Oct 3.5 05:49:12 25° NNE 05:49:12 25° NNE 05:52:23 10° NE visible
26 Oct 4.0 04:48:58 17° NNE 04:48:58 17° NNE 04:50:47 10° NNE visible
27 Oct 4.4 04:48:38 11° NNE 04:48:38 11° NNE 04:48:53 10° NNE visible
